When you browse on this site, cookies collect data to enhance your experience and personalize the content and advertising you see.
Visit our Privacy Policy to learn more. By continuing to use the site, you agree to this use of cookies and data.
  • In Hungary
  • List of Countries
  • For 7 days
  • Water Temperature
  • Satellite Maps
  • Weather Map
  • News
  • Weather Widgets
  • user-avatar
    Login

    Hourly Weather Visalia

    Today, 17 June, Monday

    Time Temperature Precipitation Wind Pressure Humidity
    00:00 +22°C° 0 mm 1 mps 748 mmHg 56%
    01:00 +21°C° 0 mm 1 mps 748 mmHg 57%
    02:00 +21°C° 0 mm 1 mps 748 mmHg 60%
    03:00 +20°C° 0 mm 1 mps 748 mmHg 62%
    04:00 +20°C° 0 mm 1 mps 748 mmHg 65%
    05:00 +22°C° 0 mm 1 mps 748 mmHg 59%
    06:00 +24°C° 0 mm 1 mps 748 mmHg 53%
    07:00 +25°C° 0 mm 1 mps 748 mmHg 47%
    08:00 +28°C° 0 mm 1 mps 748 mmHg 42%
    09:00 +30°C° 0 mm 1 mps 748 mmHg 36%
    10:00 +33°C° 0 mm 1 mps 748 mmHg 31%
    11:00 +34°C° 0 mm 1 mps 748 mmHg 28%
    12:00 +36°C° 0 mm 1 mps 748 mmHg 25%
    13:00 +37°C° 0 mm 1 mps 747 mmHg 22%
    14:00 +38°C° 0 mm 2 mps 747 mmHg 24%
    15:00 +37°C° 0 mm 4 mps 747 mmHg 25%
    16:00 +36°C° 0 mm 5 mps 747 mmHg 27%
    17:00 +35°C° 0 mm 4 mps 748 mmHg 31%
    18:00 +33°C° 0 mm 3 mps 748 mmHg 34%
    19:00 +30°C° 0 mm 2 mps 748 mmHg 37%
    20:00 +29°C° 0 mm 2 mps 748 mmHg 39%
    21:00 +28°C° 0 mm 1 mps 749 mmHg 40%
    22:00 +26°C° 0 mm 1 mps 749 mmHg 42%
    23:00 +26°C° 0 mm 1 mps 749 mmHg 44%

    Tomorrow, 18 June, Tuesday

    Time Temperature Precipitation Wind Pressure Humidity
    00:00 +25°C° 0 mm 1 mps 749 mmHg 45%
    01:00 +24°C° 0 mm 1 mps 749 mmHg 47%
    02:00 +23°C° 0 mm 1 mps 749 mmHg 49%
    03:00 +23°C° 0 mm 1 mps 749 mmHg 51%
    04:00 +22°C° 0 mm 1 mps 749 mmHg 53%
    05:00 +24°C° 0 mm 1 mps 750 mmHg 49%
    06:00 +26°C° 0 mm 1 mps 750 mmHg 46%
    07:00 +27°C° 0 mm 1 mps 750 mmHg 42%
    08:00 +30°C° 0 mm 1 mps 750 mmHg 38%
    09:00 +32°C° 0 mm 1 mps 751 mmHg 34%
    10:00 +34°C° 0 mm 1 mps 751 mmHg 29%
    11:00 +37°C° 0 mm 2 mps 750 mmHg 27%
    12:00 +38°C° 0 mm 2 mps 750 mmHg 24%
    13:00 +40°C° 0 mm 2 mps 750 mmHg 22%
    14:00 +41°C° 0 mm 2 mps 749 mmHg 21%
    15:00 +41°C° 0 mm 2 mps 749 mmHg 20%
    16:00 +42°C° 0 mm 2 mps 749 mmHg 19%
    17:00 +39°C° 0 mm 2 mps 749 mmHg 23%
    18:00 +37°C° 0 mm 2 mps 749 mmHg 26%
    19:00 +35°C° 0 mm 2 mps 750 mmHg 30%
    20:00 +32°C° 0 mm 2 mps 750 mmHg 35%
    21:00 +29°C° 0 mm 2 mps 750 mmHg 40%
    22:00 +27°C° 0 mm 2 mps 751 mmHg 45%
    23:00 +26°C° 0 mm 2 mps 751 mmHg 48%

    Day after tomorrow, 19 June, Wednesday

    Time Temperature Precipitation Wind Pressure Humidity
    00:00 +25°C° 0 mm 2 mps 751 mmHg 50%
    01:00 +24°C° 0 mm 2 mps 751 mmHg 53%
    02:00 +23°C° 0 mm 2 mps 751 mmHg 55%
    03:00 +23°C° 0 mm 2 mps 751 mmHg 56%
    04:00 +22°C° 0 mm 1 mps 751 mmHg 57%
    05:00 +24°C° 0 mm 1 mps 751 mmHg 53%
    06:00 +25°C° 0 mm 1 mps 751 mmHg 49%
    07:00 +27°C° 0 mm 1 mps 751 mmHg 45%
    08:00 +29°C° 0 mm 1 mps 751 mmHg 41%
    09:00 +31°C° 0 mm 1 mps 751 mmHg 36%
    10:00 +35°C° 0 mm 2 mps 751 mmHg 31%
    11:00 +37°C° 0 mm 2 mps 750 mmHg 28%
    12:00 +38°C° 0 mm 2 mps 750 mmHg 25%
    13:00 +40°C° 0 mm 2 mps 749 mmHg 23%
    14:00 +41°C° 0 mm 2 mps 749 mmHg 22%
    15:00 +42°C° 0 mm 3 mps 749 mmHg 20%
    16:00 +42°C° 0 mm 3 mps 748 mmHg 19%
    17:00 +39°C° 0 mm 3 mps 749 mmHg 22%
    18:00 +37°C° 0 mm 2 mps 749 mmHg 26%
    19:00 +35°C° 0 mm 2 mps 749 mmHg 29%
    20:00 +31°C° 0 mm 2 mps 749 mmHg 34%
    21:00 +29°C° 0 mm 2 mps 750 mmHg 38%
    22:00 +27°C° 0 mm 2 mps 750 mmHg 43%
    23:00 +25°C° 0 mm 2 mps 750 mmHg 46%

    20 June, Thursday

    Time Temperature Precipitation Wind Pressure Humidity
    00:00 +24°C° 0 mm 2 mps 750 mmHg 49%
    01:00 +23°C° 0 mm 2 mps 750 mmHg 52%
    02:00 +23°C° 0 mm 2 mps 750 mmHg 54%
    03:00 +21°C° 0 mm 2 mps 749 mmHg 57%
    04:00 +21°C° 0 mm 1 mps 749 mmHg 59%
    05:00 +23°C° 0 mm 2 mps 749 mmHg 55%
    06:00 +24°C° 0 mm 2 mps 749 mmHg 50%
    07:00 +26°C° 0 mm 2 mps 749 mmHg 46%
    08:00 +28°C° 0 mm 2 mps 749 mmHg 41%
    09:00 +30°C° 0 mm 2 mps 749 mmHg 35%
    10:00 +34°C° 0 mm 2 mps 749 mmHg 30%
    11:00 +36°C° 0 mm 2 mps 748 mmHg 27%
    12:00 +38°C° 0 mm 2 mps 748 mmHg 23%
    13:00 +39°C° 0 mm 2 mps 747 mmHg 20%
    14:00 +39°C° 0 mm 3 mps 747 mmHg 19%
    15:00 +40°C° 0 mm 5 mps 747 mmHg 18%
    16:00 +40°C° 0 mm 6 mps 746 mmHg 18%
    17:00 +36°C° 0 mm 5 mps 746 mmHg 22%
    18:00 +33°C° 0 mm 4 mps 746 mmHg 26%
    19:00 +29°C° 0 mm 4 mps 746 mmHg 30%
    20:00 +27°C° 0 mm 3 mps 746 mmHg 35%
    21:00 +24°C° 0 mm 3 mps 747 mmHg 40%
    22:00 +21°C° 0 mm 2 mps 747 mmHg 45%
    23:00 +20°C° 0 mm 2 mps 747 mmHg 49%

    21 June, Friday

    Time Temperature Precipitation Wind Pressure Humidity
    00:00 +19°C° 0 mm 2 mps 747 mmHg 52%
    01:00 +18°C° 0 mm 2 mps 746 mmHg 55%
    02:00 +17°C° 0 mm 2 mps 746 mmHg 58%
    03:00 +17°C° 0 mm 2 mps 746 mmHg 61%
    04:00 +16°C° 0 mm 2 mps 746 mmHg 63%
    05:00 +17°C° 0 mm 2 mps 747 mmHg 58%
    06:00 +19°C° 0 mm 2 mps 747 mmHg 53%
    07:00 +20°C° 0 mm 2 mps 747 mmHg 48%
    08:00 +23°C° 0 mm 2 mps 747 mmHg 43%
    09:00 +25°C° 0 mm 2 mps 747 mmHg 37%
    10:00 +27°C° 0 mm 2 mps 747 mmHg 32%
    11:00 +29°C° 0 mm 2 mps 747 mmHg 29%
    12:00 +31°C° 0 mm 2 mps 747 mmHg 26%
    13:00 +32°C° 0 mm 2 mps 747 mmHg 23%
    14:00 +34°C° 0 mm 2 mps 747 mmHg 22%
    15:00 +34°C° 0 mm 3 mps 746 mmHg 22%
    16:00 +35°C° 0 mm 3 mps 746 mmHg 21%
    17:00 +32°C° 0 mm 2 mps 746 mmHg 25%
    18:00 +29°C° 0 mm 2 mps 747 mmHg 28%
    19:00 +27°C° 0 mm 1 mps 747 mmHg 32%
    20:00 +26°C° 0 mm 1 mps 747 mmHg 38%
    21:00 +24°C° 0 mm 1 mps 748 mmHg 44%
    22:00 +22°C° 0 mm 1 mps 748 mmHg 49%
    23:00 +21°C° 0 mm 1 mps 748 mmHg 50%

    22 June, Saturday

    Time Temperature Precipitation Wind Pressure Humidity
    00:00 +21°C° 0 mm 1 mps 748 mmHg 51%
    01:00 +20°C° 0 mm 1 mps 749 mmHg 52%
    02:00 +19°C° 0 mm 1 mps 749 mmHg 53%
    03:00 +19°C° 0 mm 1 mps 749 mmHg 54%
    04:00 +18°C° 0 mm 1 mps 749 mmHg 55%
    05:00 +20°C° 0 mm 1 mps 749 mmHg 50%
    06:00 +22°C° 0 mm 1 mps 749 mmHg 44%
    07:00 +24°C° 0 mm 1 mps 750 mmHg 38%
    08:00 +27°C° 0 mm 1 mps 750 mmHg 33%
    09:00 +29°C° 0 mm 1 mps 750 mmHg 28%
    10:00 +32°C° 0 mm 1 mps 750 mmHg 23%
    11:00 +33°C° 0 mm 1 mps 750 mmHg 21%
    12:00 +35°C° 0 mm 1 mps 749 mmHg 19%
    13:00 +37°C° 0 mm 1 mps 749 mmHg 17%
    14:00 +38°C° 0 mm 2 mps 748 mmHg 16%
    15:00 +38°C° 0 mm 2 mps 748 mmHg 15%
    16:00 +39°C° 0 mm 2 mps 748 mmHg 14%
    17:00 +36°C° 0 mm 2 mps 748 mmHg 18%
    18:00 +34°C° 0 mm 2 mps 748 mmHg 21%
    19:00 +31°C° 0 mm 2 mps 748 mmHg 24%
    20:00 +28°C° 0 mm 2 mps 749 mmHg 28%
    21:00 +26°C° 0 mm 2 mps 749 mmHg 32%
    22:00 +24°C° 0 mm 2 mps 749 mmHg 36%
    23:00 +23°C° 0 mm 2 mps 749 mmHg 38%
    Show more